Regional Weather Roundup
Issued by NWS Charleston, WV

Home | Current Version | Previous Version | Text Only | Print | Product List | Glossary Off
Versions: 1 2 3 4 5 6 7 8 9 10 11 12 13 14 15 16 17 18 19 20 21 22 23 24 25 26 27 28 29 30 31 32 33 34 35 36 37 38 39 40 41 42 43 44 45

000
ASUS41 KRLX 261510
RWRRLX
West Virginia Regional Weather Roundup
National Weather Service Charleston WV
1000 AM EST FRI DEC 26 2014

Note: "fair" indicates few or no clouds below 12,000 feet with no
significant weather and/or obstructions to visibility.

WVZ003-261600-
Northern Panhandle of West Virginia

CITY           SKY/WX    TMP DP  RH WIND       PRES   REMARKS
WHEELING       SUNNY     37  31  78 S8        30.28S
$$

WVZ009-261600-
Northwest West Virginia

CITY           SKY/WX    TMP DP  RH WIND       PRES   REMARKS
PARKERSBURG    SUNNY     36  31  82 S6        30.34R
$$

WVZ006-261600-
Western West Virginia

CITY           SKY/WX    TMP DP  RH WIND       PRES   REMARKS
HUNTINGTON     SUNNY     34  31  88 S3        30.32R
$$

WVZ015-261600-
West Central West Virginia

CITY           SKY/WX    TMP DP  RH WIND       PRES   REMARKS
CHARLESTON     MOSUNNY   31  29  92 CALM      30.33R
$$

WVZ022-031-261600-
North Central West Virginia

CITY           SKY/WX    TMP DP  RH WIND       PRES   REMARKS
CLARKSBURG     MOSUNNY   35  32  88 S3        30.32R
MORGANTOWN     SUNNY     39  29  67 S3        30.32R
$$

WVZ025-035-042-045-261600-
Southern West Virginia

CITY           SKY/WX    TMP DP  RH WIND       PRES   REMARKS
BECKLEY        SUNNY     36  29  75 CALM      30.32R
LOGAN            N/A     37  34  87 CALM      30.33R
BLUEFIELD      SUNNY     44  19  36 SW5       30.31R
LEWISBURG      FOG       29  28  94 CALM      30.33R VSB 1/4
$$

WVZ047-261600-
Northern Mountains of West Virginia

CITY           SKY/WX    TMP DP  RH WIND       PRES   REMARKS
ELKINS         SUNNY     32  30  92 CALM      30.32R
$$

WVZ052-261600-
Eastern Panhandle of West Virginia

CITY           SKY/WX    TMP DP  RH WIND       PRES   REMARKS
MARTINSBURG    SUNNY     40  29  64 S5        30.33S
PETERSBURG     SUNNY     32  30  94 CALM      30.34S
$$



USA.gov is the U.S. government's official web portal to all federal, state and local government web resources and services.